Time,TemperatureF,DewpointF,PressureIn,WindDirection,WindDirectionDegrees,WindSpeedMPH,WindSpeedGustMPH,Humidity,HourlyPrecipIn,Conditions,Clouds,dailyrainin,SoftwareType,DateUTC
2013-03-26 00:00:00,29.4,26.0,29.78,West,269,0.0,6.0,87,0.00,,,0.00,Wunderground v.1.15,2013-03-26 04:00:00,
2013-03-26 00:02:00,29.4,26.0,29.78,West,262,0.0,6.0,87,0.00,,,0.00,Wunderground v.1.15,2013-03-26 04:02:00,
2013-03-26 00:03:00,29.4,26.0,29.78,West,262,0.0,6.0,87,0.00,,,0.00,Wunderground v.1.15,2013-03-26 04:03:00,
2013-03-26 00:05:00,29.5,26.1,29.78,West,264,0.0,6.0,87,0.00,,,0.00,Wunderground v.1.15,2013-03-26 04:05:00,
2013-03-26 00:11:00,29.5,26.1,29.78,West,274,0.0,6.0,87,0.00,,,0.00,Wunderground v.1.15,2013-03-26 04:11:00,
2013-03-26 00:16:00,29.6,26.2,29.78,NW,321,0.0,6.0,87,0.00,,,0.00,Wunderground v.1.15,2013-03-26 04:16:00,
2013-03-26 00:22:00,30.0,26.6,29.78,WNW,283,1.0,6.0,87,0.00,,,0.00,Wunderground v.1.15,2013-03-26 04:22:00,
2013-03-26 00:27:00,30.3,26.9,29.78,West,273,1.0,6.0,87,0.00,,,0.00,Wunderground v.1.15,2013-03-26 04:27:00,
2013-03-26 00:33:00,30.4,27.3,29.79,WSW,257,1.0,6.0,88,0.00,,,0.00,Wunderground v.1.15,2013-03-26 04:33:00,
2013-03-26 00:38:00,30.5,27.4,29.79,West,267,0.0,6.0,88,0.00,,,0.00,Wunderground v.1.15,2013-03-26 04:38:00,
2013-03-26 00:43:00,30.6,27.5,29.79,WNW,289,0.0,6.0,88,0.00,,,0.00,Wunderground v.1.15,2013-03-26 04:43:00,
2013-03-26 00:49:00,30.7,27.6,29.79,WNW,298,0.0,6.0,88,0.00,,,0.00,Wunderground v.1.15,2013-03-26 04:49:00,
2013-03-26 00:54:00,30.7,27.8,29.79,West,259,1.0,6.0,89,0.00,,,0.00,Wunderground v.1.15,2013-03-26 04:54:00,
2013-03-26 01:00:00,30.6,27.7,29.80,West,280,1.0,6.0,89,0.00,,,0.00,Wunderground v.1.15,2013-03-26 05:00:00,
2013-03-26 01:05:00,30.6,28.0,29.80,WNW,293,1.0,6.0,90,0.00,,,0.00,Wunderground v.1.15,2013-03-26 05:05:00,
2013-03-26 01:11:00,30.5,27.9,29.80,West,281,1.0,6.0,90,0.00,,,0.00,Wunderground v.1.15,2013-03-26 05:11:00,
2013-03-26 01:17:00,30.5,28.2,29.80,WSW,240,1.0,6.0,91,0.00,,,0.00,Wunderground v.1.15,2013-03-26 05:17:00,
2013-03-26 01:22:00,30.5,28.2,29.80,West,274,1.0,6.0,91,0.00,,,0.00,Wunderground v.1.15,2013-03-26 05:22:00,
2013-03-26 01:28:00,30.5,28.2,29.80,NW,314,1.0,6.0,91,0.00,,,0.00,Wunderground v.1.15,2013-03-26 05:28:00,
2013-03-26 01:34:00,30.5,28.2,29.80,WNW,303,1.0,6.0,91,0.00,,,0.00,Wunderground v.1.15,2013-03-26 05:34:00,
2013-03-26 01:39:00,30.5,28.2,29.80,WNW,291,1.0,6.0,91,0.00,,,0.00,Wunderground v.1.15,2013-03-26 05:39:00,
2013-03-26 01:44:00,30.4,28.1,29.80,WNW,283,0.0,6.0,91,0.00,,,0.00,Wunderground v.1.15,2013-03-26 05:44:00,
2013-03-26 01:49:00,30.4,28.1,29.80,WNW,288,0.0,6.0,91,0.00,,,0.00,Wunderground v.1.15,2013-03-26 05:49:00,
2013-03-26 01:55:00,30.4,28.1,29.80,WNW,298,1.0,6.0,91,0.00,,,0.00,Wunderground v.1.15,2013-03-26 05:55:00,
2013-03-26 02:00:00,30.4,28.1,29.81,NNW,332,1.0,6.0,91,0.00,,,0.00,Wunderground v.1.15,2013-03-26 06:00:00,
2013-03-26 02:06:00,30.4,28.1,29.81,NW,307,0.0,6.0,91,0.00,,,0.00,Wunderground v.1.15,2013-03-26 06:06:00,
2013-03-26 02:11:00,30.4,28.1,29.81,WNW,300,0.0,6.0,91,0.00,,,0.00,Wunderground v.1.15,2013-03-26 06:11:00,
2013-03-26 02:16:00,30.4,28.1,29.81,WNW,284,0.0,6.0,91,0.00,,,0.00,Wunderground v.1.15,2013-03-26 06:16:00,
2013-03-26 02:21:00,30.3,28.0,29.81,WNW,297,0.0,6.0,91,0.00,,,0.00,Wunderground v.1.15,2013-03-26 06:21:00,
2013-03-26 02:27:00,30.3,28.0,29.81,West,261,0.0,6.0,91,0.00,,,0.00,Wunderground v.1.15,2013-03-26 06:27:00,
2013-03-26 02:32:00,30.4,27.8,29.81,WNW,295,1.0,6.0,90,0.00,,,0.00,Wunderground v.1.15,2013-03-26 06:32:00,
2013-03-26 02:38:00,30.6,27.7,29.81,WSW,257,1.0,6.0,89,0.00,,,0.00,Wunderground v.1.15,2013-03-26 06:38:00,
2013-03-26 02:43:00,30.6,27.7,29.81,WNW,287,0.0,6.0,89,0.00,,,0.00,Wunderground v.1.15,2013-03-26 06:43:00,
2013-03-26 02:49:00,30.6,27.7,29.81,West,278,1.0,6.0,89,0.00,,,0.00,Wunderground v.1.15,2013-03-26 06:49:00,
2013-03-26 02:55:00,30.6,27.7,29.81,SW,230,1.0,6.0,89,0.00,,,0.00,Wunderground v.1.15,2013-03-26 06:55:00,
2013-03-26 03:00:00,30.6,27.7,29.81,West,276,1.0,1.0,89,0.00,,,0.00,Wunderground v.1.15,2013-03-26 07:00:00,
2013-03-26 03:05:00,30.6,27.5,29.81,WNW,293,1.0,6.0,88,0.00,,,0.00,Wunderground v.1.15,2013-03-26 07:05:00,
2013-03-26 03:11:00,30.6,27.7,29.81,NNW,344,0.0,6.0,89,0.00,,,0.00,Wunderground v.1.15,2013-03-26 07:11:00,
2013-03-26 03:16:00,30.6,27.7,29.82,NNW,345,0.0,6.0,89,0.00,,,0.00,Wunderground v.1.15,2013-03-26 07:16:00,
2013-03-26 03:22:00,30.5,27.6,29.82,NW,305,0.0,6.0,89,0.00,,,0.00,Wunderground v.1.15,2013-03-26 07:22:00,
2013-03-26 03:28:00,30.4,27.5,29.82,WNW,295,0.0,6.0,89,0.00,,,0.00,Wunderground v.1.15,2013-03-26 07:28:00,
2013-03-26 03:34:00,30.4,27.5,29.82,WNW,295,0.0,6.0,89,0.00,,,0.00,Wunderground v.1.15,2013-03-26 07:34:00,
2013-03-26 03:39:00,30.4,27.5,29.82,NNW,335,0.0,6.0,89,0.00,,,0.00,Wunderground v.1.15,2013-03-26 07:39:00,
2013-03-26 03:45:00,30.3,27.4,29.82,ENE,78,0.0,6.0,89,0.00,,,0.00,Wunderground v.1.15,2013-03-26 07:45:00,
2013-03-26 03:50:00,30.2,27.3,29.82,ENE,78,0.0,6.0,89,0.00,,,0.00,Wunderground v.1.15,2013-03-26 07:50:00,
2013-03-26 03:55:00,30.1,27.5,29.81,ENE,78,0.0,6.0,90,0.00,,,0.00,Wunderground v.1.15,2013-03-26 07:55:00,
2013-03-26 04:01:00,30.1,27.5,29.81,ENE,78,0.0,6.0,90,0.00,,,0.00,Wunderground v.1.15,2013-03-26 08:01:00,
2013-03-26 04:06:00,30.0,27.4,29.81,ENE,78,0.0,6.0,90,0.00,,,0.00,Wunderground v.1.15,2013-03-26 08:06:00,
2013-03-26 04:12:00,29.8,27.2,29.82,ENE,77,0.0,6.0,90,0.00,,,0.00,Wunderground v.1.15,2013-03-26 08:12:00,
2013-03-26 04:17:00,29.8,27.2,29.82,ENE,77,0.0,6.0,90,0.00,,,0.00,Wunderground v.1.15,2013-03-26 08:17:00,
2013-03-26 04:22:00,29.8,27.5,29.82,ENE,78,0.0,6.0,91,0.00,,,0.00,Wunderground v.1.15,2013-03-26 08:22:00,
2013-03-26 04:27:00,29.7,27.4,29.82,ENE,77,0.0,6.0,91,0.00,,,0.00,Wunderground v.1.15,2013-03-26 08:27:00,
2013-03-26 04:33:00,29.7,27.4,29.82,ENE,77,0.0,6.0,91,0.00,,,0.00,Wunderground v.1.15,2013-03-26 08:33:00,
2013-03-26 04:38:00,29.6,27.3,29.82,ENE,77,0.0,6.0,91,0.00,,,0.00,Wunderground v.1.15,2013-03-26 08:38:00,
2013-03-26 04:43:00,29.6,27.3,29.82,ENE,78,0.0,6.0,91,0.00,,,0.00,Wunderground v.1.15,2013-03-26 08:43:00,
2013-03-26 04:48:00,29.6,27.3,29.82,ENE,77,0.0,6.0,91,0.00,,,0.00,Wunderground v.1.15,2013-03-26 08:48:00,
2013-03-26 04:54:00,29.6,27.3,29.82,West,276,0.0,6.0,91,0.00,,,0.00,Wunderground v.1.15,2013-03-26 08:54:00,
2013-03-26 04:59:00,29.7,27.1,29.82,SW,236,0.0,6.0,90,0.00,,,0.00,Wunderground v.1.15,2013-03-26 08:59:00,
2013-03-26 05:05:00,29.7,27.1,29.82,West,266,0.0,6.0,90,0.00,,,0.00,Wunderground v.1.15,2013-03-26 09:05:00,
2013-03-26 05:10:00,29.7,27.1,29.83,West,278,0.0,6.0,90,0.00,,,0.00,Wunderground v.1.15,2013-03-26 09:10:00,
2013-03-26 05:15:00,29.7,27.1,29.82,West,278,0.0,6.0,90,0.00,,,0.00,Wunderground v.1.15,2013-03-26 09:15:00,
2013-03-26 05:20:00,29.7,27.1,29.83,West,278,0.0,6.0,90,0.00,,,0.00,Wunderground v.1.15,2013-03-26 09:20:00,
2013-03-26 05:25:00,29.8,27.2,29.83,West,278,0.0,6.0,90,0.00,,,0.00,Wunderground v.1.15,2013-03-26 09:25:00,
2013-03-26 05:31:00,30.0,27.2,29.83,NNE,27,0.0,6.0,89,0.00,,,0.00,Wunderground v.1.15,2013-03-26 09:31:00,
2013-03-26 05:36:00,30.1,27.3,29.83,NNE,27,0.0,6.0,89,0.00,,,0.00,Wunderground v.1.15,2013-03-26 09:36:00,
2013-03-26 05:42:00,30.0,27.2,29.83,NE,38,0.0,6.0,89,0.00,,,0.00,Wunderground v.1.15,2013-03-26 09:42:00,
2013-03-26 05:48:00,29.8,27.2,29.83,East,95,0.0,6.0,90,0.00,,,0.00,Wunderground v.1.15,2013-03-26 09:48:00,
2013-03-26 05:54:00,29.8,27.2,29.83,East,91,0.0,6.0,90,0.00,,,0.00,Wunderground v.1.15,2013-03-26 09:54:00,
2013-03-26 05:59:00,29.7,27.1,29.83,SW,225,0.0,6.0,90,0.00,,,0.00,Wunderground v.1.15,2013-03-26 09:59:00,
2013-03-26 06:05:00,29.6,27.0,29.84,SW,225,0.0,6.0,90,0.00,,,0.00,Wunderground v.1.15,2013-03-26 10:05:00,
2013-03-26 06:10:00,29.4,26.8,29.84,SW,225,0.0,6.0,90,0.00,,,0.00,Wunderground v.1.15,2013-03-26 10:10:00,
2013-03-26 06:15:00,29.2,26.6,29.84,SW,225,0.0,6.0,90,0.00,,,0.00,Wunderground v.1.15,2013-03-26 10:15:00,
2013-03-26 06:21:00,28.9,26.6,29.84,SW,224,0.0,6.0,91,0.00,,,0.00,Wunderground v.1.15,2013-03-26 10:21:00,
2013-03-26 06:27:00,28.6,26.3,29.85,South,173,0.0,6.0,91,0.00,,,0.00,Wunderground v.1.15,2013-03-26 10:27:00,
2013-03-26 06:32:00,28.5,26.2,29.85,South,173,0.0,6.0,91,0.00,,,0.00,Wunderground v.1.15,2013-03-26 10:32:00,
2013-03-26 06:37:00,28.3,26.0,29.85,South,173,0.0,6.0,91,0.00,,,0.00,Wunderground v.1.15,2013-03-26 10:37:00,
2013-03-26 06:42:00,28.2,26.2,29.85,South,173,0.0,6.0,92,0.00,,,0.00,Wunderground v.1.15,2013-03-26 10:42:00,
2013-03-26 06:47:00,28.2,26.2,29.85,South,173,0.0,6.0,92,0.00,,,0.00,Wunderground v.1.15,2013-03-26 10:47:00,
2013-03-26 06:53:00,28.2,26.2,29.85,South,173,0.0,6.0,92,0.00,,,0.00,Wunderground v.1.15,2013-03-26 10:53:00,
2013-03-26 06:59:00,28.1,26.1,29.85,South,173,0.0,6.0,92,0.00,,,0.00,Wunderground v.1.15,2013-03-26 10:59:00,
2013-03-26 07:04:00,28.1,26.3,29.86,South,173,0.0,6.0,93,0.00,,,0.00,Wunderground v.1.15,2013-03-26 11:04:00,
2013-03-26 07:10:00,28.1,26.3,29.86,South,173,0.0,6.0,93,0.00,,,0.00,Wunderground v.1.15,2013-03-26 11:10:00,
2013-03-26 07:15:00,28.0,26.2,29.86,South,173,0.0,6.0,93,0.00,,,0.00,Wunderground v.1.15,2013-03-26 11:15:00,
2013-03-26 07:21:00,28.3,26.5,29.86,South,173,0.0,6.0,93,0.00,,,0.00,Wunderground v.1.15,2013-03-26 11:21:00,
2013-03-26 07:27:00,28.4,26.6,29.86,South,173,0.0,6.0,93,0.00,,,0.00,Wunderground v.1.15,2013-03-26 11:27:00,
2013-03-26 07:33:00,28.5,26.7,29.87,ESE,114,0.0,6.0,93,0.00,,,0.00,Wunderground v.1.15,2013-03-26 11:33:00,
2013-03-26 07:38:00,28.5,26.7,29.87,East,91,0.0,6.0,93,0.00,,,0.00,Wunderground v.1.15,2013-03-26 11:38:00,
2013-03-26 07:43:00,28.5,26.7,29.87,East,91,0.0,6.0,93,0.00,,,0.00,Wunderground v.1.15,2013-03-26 11:43:00,
2013-03-26 07:49:00,28.5,26.7,29.88,East,91,0.0,6.0,93,0.00,,,0.00,Wunderground v.1.15,2013-03-26 11:49:00,
2013-03-26 07:55:00,28.6,26.8,29.88,East,91,0.0,6.0,93,0.00,,,0.00,Wunderground v.1.15,2013-03-26 11:55:00,
2013-03-26 08:01:00,28.8,27.0,29.88,East,91,0.0,6.0,93,0.00,,,0.00,Wunderground v.1.15,2013-03-26 12:01:00,
2013-03-26 08:06:00,29.1,27.3,29.88,East,91,0.0,6.0,93,0.00,,,0.00,Wunderground v.1.15,2013-03-26 12:06:00,
2013-03-26 08:11:00,29.3,27.5,29.89,East,91,0.0,6.0,93,0.00,,,0.00,Wunderground v.1.15,2013-03-26 12:11:00,
2013-03-26 08:17:00,29.4,27.6,29.89,East,91,0.0,6.0,93,0.00,,,0.00,Wunderground v.1.15,2013-03-26 12:17:00,
2013-03-26 08:22:00,29.6,27.6,29.89,East,91,0.0,6.0,92,0.00,,,0.00,Wunderground v.1.15,2013-03-26 12:22:00,
2013-03-26 08:28:00,29.8,27.8,29.89,East,90,0.0,6.0,92,0.00,,,0.00,Wunderground v.1.15,2013-03-26 12:28:00,
2013-03-26 08:34:00,30.2,27.9,29.89,East,90,0.0,6.0,91,0.00,,,0.00,Wunderground v.1.15,2013-03-26 12:34:00,
2013-03-26 08:39:00,30.5,28.2,29.90,East,91,0.0,6.0,91,0.00,,,0.00,Wunderground v.1.15,2013-03-26 12:39:00,
2013-03-26 08:44:00,30.9,28.6,29.90,West,269,0.0,6.0,91,0.00,,,0.00,Wunderground v.1.15,2013-03-26 12:44:00,
2013-03-26 08:50:00,31.4,29.1,29.90,West,266,1.0,6.0,91,0.00,,,0.00,Wunderground v.1.15,2013-03-26 12:50:00,
2013-03-26 08:55:00,31.6,29.0,29.90,SW,231,1.0,6.0,90,0.00,,,0.00,Wunderground v.1.15,2013-03-26 12:55:00,
2013-03-26 09:01:00,31.8,29.2,29.90,SW,232,1.0,6.0,90,0.00,,,0.00,Wunderground v.1.15,2013-03-26 13:01:00,
2013-03-26 09:06:00,32.1,29.2,29.90,WSW,252,1.0,6.0,89,0.00,,,0.00,Wunderground v.1.15,2013-03-26 13:06:00,
2013-03-26 09:12:00,32.3,29.4,29.90,SW,224,0.0,6.0,89,0.00,,,0.00,Wunderground v.1.15,2013-03-26 13:12:00,
2013-03-26 09:17:00,32.5,29.6,29.90,SW,222,0.0,6.0,89,0.00,,,0.00,Wunderground v.1.15,2013-03-26 13:17:00,
2013-03-26 09:22:00,32.7,29.5,29.90,WSW,240,1.0,6.0,88,0.00,,,0.00,Wunderground v.1.15,2013-03-26 13:22:00,
2013-03-26 09:27:00,32.9,29.7,29.90,SW,225,1.0,6.0,88,0.00,,,0.00,Wunderground v.1.15,2013-03-26 13:27:00,
2013-03-26 09:32:00,33.2,30.0,29.90,SW,227,1.0,6.0,88,0.00,,,0.00,Wunderground v.1.15,2013-03-26 13:32:00,
2013-03-26 09:38:00,33.5,30.0,29.90,SW,236,1.0,6.0,87,0.00,,,0.00,Wunderground v.1.15,2013-03-26 13:38:00,
2013-03-26 09:43:00,33.5,29.8,29.90,WNW,295,1.0,6.0,86,0.00,,,0.00,Wunderground v.1.15,2013-03-26 13:43:00,
2013-03-26 09:49:00,33.6,29.9,29.91,WSW,248,2.0,6.0,86,0.00,,,0.00,Wunderground v.1.15,2013-03-26 13:49:00,
2013-03-26 09:54:00,34.0,30.5,29.91,WSW,257,1.0,6.0,87,0.00,,,0.00,Wunderground v.1.15,2013-03-26 13:54:00,
2013-03-26 09:59:00,34.4,30.4,29.91,West,277,0.0,6.0,85,0.00,,,0.00,Wunderground v.1.15,2013-03-26 13:59:00,
2013-03-26 10:04:00,34.4,30.4,29.91,West,280,1.0,6.0,85,0.00,,,0.00,Wunderground v.1.15,2013-03-26 14:04:00,
2013-03-26 10:10:00,34.6,30.3,29.91,WNW,301,1.0,6.0,84,0.00,,,0.00,Wunderground v.1.15,2013-03-26 14:10:00,
2013-03-26 10:15:00,34.7,30.4,29.91,West,280,2.0,6.0,84,0.00,,,0.00,Wunderground v.1.15,2013-03-26 14:15:00,
2013-03-26 10:20:00,34.9,30.6,29.91,WNW,295,3.0,6.0,84,0.00,,,0.00,Wunderground v.1.15,2013-03-26 14:20:00,
2013-03-26 10:25:00,35.0,30.4,29.91,WNW,301,3.0,6.0,83,0.00,,,0.00,Wunderground v.1.15,2013-03-26 14:25:00,
2013-03-26 10:31:00,35.2,30.6,29.91,WNW,297,2.0,6.0,83,0.00,,,0.00,Wunderground v.1.15,2013-03-26 14:31:00,
2013-03-26 10:36:00,35.6,30.9,29.91,WNW,285,2.0,6.0,83,0.00,,,0.00,Wunderground v.1.15,2013-03-26 14:36:00,
2013-03-26 10:42:00,35.7,31.0,29.92,WNW,297,2.0,6.0,83,0.00,,,0.00,Wunderground v.1.15,2013-03-26 14:42:00,
2013-03-26 10:47:00,35.9,30.9,29.92,NNW,347,2.0,6.0,82,0.00,,,0.00,Wunderground v.1.15,2013-03-26 14:47:00,
2013-03-26 10:52:00,36.0,31.0,29.92,WNW,301,2.0,6.0,82,0.00,,,0.00,Wunderground v.1.15,2013-03-26 14:52:00,
2013-03-26 10:58:00,35.9,30.9,29.92,WSW,248,3.0,6.0,82,0.00,,,0.00,Wunderground v.1.15,2013-03-26 14:58:00,
2013-03-26 11:03:00,36.0,31.0,29.93,West,271,3.0,6.0,82,0.00,,,0.00,Wunderground v.1.15,2013-03-26 15:03:00,
2013-03-26 11:08:00,36.0,31.3,29.93,West,264,3.0,6.0,83,0.00,,,0.00,Wunderground v.1.15,2013-03-26 15:08:00,
2013-03-26 11:13:00,36.1,31.1,29.93,NW,326,3.0,6.0,82,0.00,,,0.00,Wunderground v.1.15,2013-03-26 15:13:00,
2013-03-26 11:18:00,35.9,30.9,29.94,NW,319,3.0,6.0,82,0.00,,,0.00,Wunderground v.1.15,2013-03-26 15:18:00,
2013-03-26 11:24:00,35.8,31.1,29.94,NW,312,3.0,6.0,83,0.00,,,0.00,Wunderground v.1.15,2013-03-26 15:24:00,
2013-03-26 11:30:00,35.6,30.9,29.94,West,264,3.0,6.0,83,0.00,,,0.00,Wunderground v.1.15,2013-03-26 15:30:00,
2013-03-26 11:35:00,35.7,31.0,29.94,NW,314,3.0,6.0,83,0.00,,,0.00,Wunderground v.1.15,2013-03-26 15:35:00,
2013-03-26 11:40:00,35.9,31.2,29.94,West,270,3.0,3.0,83,0.00,,,0.00,Wunderground v.1.15,2013-03-26 15:40:00,
2013-03-26 11:45:00,36.1,31.1,29.94,WNW,302,3.0,6.0,82,0.00,,,0.00,Wunderground v.1.15,2013-03-26 15:45:00,
2013-03-26 11:50:00,36.5,31.2,29.94,West,274,3.0,7.0,81,0.00,,,0.00,Wunderground v.1.15,2013-03-26 15:50:00,
2013-03-26 11:56:00,36.5,31.2,29.94,NW,326,4.0,7.0,81,0.00,,,0.00,Wunderground v.1.15,2013-03-26 15:56:00,
2013-03-26 12:01:00,36.4,30.8,29.94,NW,305,4.0,6.0,80,0.00,,,0.00,Wunderground v.1.15,2013-03-26 16:01:00,
2013-03-26 12:06:00,36.4,31.1,29.94,West,281,4.0,6.0,81,0.00,,,0.00,Wunderground v.1.15,2013-03-26 16:06:00,
2013-03-26 12:11:00,36.5,31.2,29.94,West,270,4.0,6.0,81,0.00,,,0.00,Wunderground v.1.15,2013-03-26 16:11:00,
2013-03-26 12:17:00,36.7,31.1,29.94,West,274,4.0,7.0,80,0.00,,,0.00,Wunderground v.1.15,2013-03-26 16:17:00,
2013-03-26 12:23:00,36.8,31.2,29.94,NW,325,4.0,6.0,80,0.00,,,0.00,Wunderground v.1.15,2013-03-26 16:23:00,
2013-03-26 12:28:00,37.1,31.2,29.94,WNW,299,4.0,6.0,79,0.00,,,0.00,Wunderground v.1.15,2013-03-26 16:28:00,
2013-03-26 12:33:00,37.7,32.1,29.94,WNW,297,3.0,6.0,80,0.00,,,0.00,Wunderground v.1.15,2013-03-26 16:33:00,
2013-03-26 12:39:00,38.6,32.0,29.94,West,274,2.0,6.0,77,0.00,,,0.00,Wunderground v.1.15,2013-03-26 16:39:00,
2013-03-26 12:44:00,39.0,31.4,29.93,West,260,2.0,6.0,74,0.00,,,0.00,Wunderground v.1.15,2013-03-26 16:44:00,
2013-03-26 12:50:00,39.6,32.0,29.94,WSW,239,2.0,6.0,74,0.00,,,0.00,Wunderground v.1.15,2013-03-26 16:50:00,
2013-03-26 12:55:00,39.7,31.8,29.93,WSW,252,2.0,7.0,73,0.00,,,0.00,Wunderground v.1.15,2013-03-26 16:55:00,
2013-03-26 13:00:00,40.2,31.9,29.94,WSW,249,2.0,2.0,72,0.00,,,0.00,Wunderground v.1.15,2013-03-26 17:00:00,
2013-03-26 13:05:00,40.5,31.5,29.94,NW,309,2.0,6.0,70,0.00,,,0.00,Wunderground v.1.15,2013-03-26 17:05:00,
2013-03-26 13:11:00,40.0,31.0,29.94,West,260,3.0,6.0,70,0.00,,,0.00,Wunderground v.1.15,2013-03-26 17:11:00,
2013-03-26 13:16:00,40.3,31.3,29.94,WNW,283,3.0,6.0,70,0.00,,,0.00,Wunderground v.1.15,2013-03-26 17:16:00,
2013-03-26 13:21:00,40.6,31.6,29.94,NE,41,3.0,6.0,70,0.00,,,0.00,Wunderground v.1.15,2013-03-26 17:21:00,
2013-03-26 13:26:00,40.7,31.3,29.94,NNW,342,3.0,6.0,69,0.00,,,0.00,Wunderground v.1.15,2013-03-26 17:26:00,
2013-03-26 13:32:00,40.8,31.8,29.94,NW,311,3.0,6.0,70,0.00,,,0.00,Wunderground v.1.15,2013-03-26 17:32:00,
2013-03-26 13:37:00,40.6,30.9,29.94,West,272,3.0,6.0,68,0.00,,,0.00,Wunderground v.1.15,2013-03-26 17:37:00,
2013-03-26 13:42:00,40.7,31.3,29.94,SW,233,4.0,6.0,69,0.00,,,0.00,Wunderground v.1.15,2013-03-26 17:42:00,
2013-03-26 13:47:00,40.9,31.1,29.94,WSW,245,4.0,6.0,68,0.00,,,0.00,Wunderground v.1.15,2013-03-26 17:47:00,
2013-03-26 13:52:00,40.4,30.7,29.94,NW,305,4.0,7.0,68,0.00,,,0.00,Wunderground v.1.15,2013-03-26 17:52:00,
2013-03-26 13:58:00,39.9,30.9,29.94,NNE,32,4.0,8.0,70,0.00,,,0.00,Wunderground v.1.15,2013-03-26 17:58:00,
2013-03-26 14:04:00,40.0,31.4,29.94,NW,323,4.0,6.0,71,0.00,,,0.00,Wunderground v.1.15,2013-03-26 18:04:00,
2013-03-26 14:09:00,39.8,31.2,29.94,WNW,293,4.0,6.0,71,0.00,,,0.00,Wunderground v.1.15,2013-03-26 18:09:00,
2013-03-26 14:14:00,39.5,31.2,29.95,West,274,4.0,6.0,72,0.00,,,0.00,Wunderground v.1.15,2013-03-26 18:14:00,
2013-03-26 14:20:00,39.6,31.0,29.95,West,262,4.0,6.0,71,0.00,,,0.00,Wunderground v.1.15,2013-03-26 18:20:00,
2013-03-26 14:25:00,39.2,30.9,29.95,SSW,211,5.0,7.0,72,0.00,,,0.00,Wunderground v.1.15,2013-03-26 18:25:00,
2013-03-26 14:30:00,39.0,31.1,29.95,West,276,5.0,5.0,73,0.00,,,0.00,Wunderground v.1.15,2013-03-26 18:30:00,
2013-03-26 14:36:00,39.0,31.1,29.95,NW,308,4.0,8.0,73,0.00,,,0.00,Wunderground v.1.15,2013-03-26 18:36:00,
2013-03-26 14:41:00,38.9,31.0,29.95,SW,219,4.0,6.0,73,0.00,,,0.00,Wunderground v.1.15,2013-03-26 18:41:00,
2013-03-26 14:46:00,39.0,30.7,29.95,WNW,288,5.0,7.0,72,0.00,,,0.00,Wunderground v.1.15,2013-03-26 18:46:00,
2013-03-26 14:51:00,38.7,30.8,29.95,WSW,252,5.0,7.0,73,0.00,,,0.00,Wunderground v.1.15,2013-03-26 18:51:00,
2013-03-26 14:57:00,38.7,30.8,29.95,NW,316,5.0,7.0,73,0.00,,,0.00,Wunderground v.1.15,2013-03-26 18:57:00,
2013-03-26 15:02:00,38.5,30.9,29.95,NNW,338,5.0,6.0,74,0.00,,,0.00,Wunderground v.1.15,2013-03-26 19:02:00,
2013-03-26 15:08:00,38.4,31.2,29.95,West,281,5.0,10.0,75,0.00,,,0.00,Wunderground v.1.15,2013-03-26 19:08:00,
2013-03-26 15:14:00,38.5,30.6,29.95,WNW,295,5.0,6.0,73,0.00,,,0.00,Wunderground v.1.15,2013-03-26 19:14:00,
2013-03-26 15:20:00,38.4,30.8,29.95,West,260,5.0,6.0,74,0.00,,,0.00,Wunderground v.1.15,2013-03-26 19:20:00,
2013-03-26 15:25:00,38.7,31.1,29.95,West,277,4.0,7.0,74,0.00,,,0.00,Wunderground v.1.15,2013-03-26 19:25:00,
2013-03-26 15:30:00,38.5,30.9,29.95,WNW,297,4.0,4.0,74,0.00,,,0.00,Wunderground v.1.15,2013-03-26 19:30:00,
2013-03-26 15:36:00,38.3,31.1,29.95,SSW,195,4.0,7.0,75,0.00,,,0.00,Wunderground v.1.15,2013-03-26 19:36:00,
2013-03-26 15:42:00,38.6,31.4,29.95,NNE,17,4.0,6.0,75,0.00,,,0.00,Wunderground v.1.15,2013-03-26 19:42:00,
2013-03-26 15:47:00,38.3,31.1,29.95,West,264,4.0,7.0,75,0.00,,,0.00,Wunderground v.1.15,2013-03-26 19:47:00,
2013-03-26 15:52:00,38.0,31.1,29.96,NW,309,5.0,7.0,76,0.00,,,0.00,Wunderground v.1.15,2013-03-26 19:52:00,
2013-03-26 15:57:00,38.0,31.4,29.96,SW,229,5.0,7.0,77,0.00,,,0.00,Wunderground v.1.15,2013-03-26 19:57:00,
2013-03-26 16:03:00,37.9,31.0,29.96,WSW,250,4.0,6.0,76,0.00,,,0.00,Wunderground v.1.15,2013-03-26 20:03:00,
2013-03-26 16:08:00,38.1,31.5,29.96,NW,321,3.0,6.0,77,0.00,,,0.00,Wunderground v.1.15,2013-03-26 20:08:00,
2013-03-26 16:14:00,38.2,31.6,29.96,WSW,252,3.0,6.0,77,0.00,,,0.00,Wunderground v.1.15,2013-03-26 20:14:00,
2013-03-26 16:19:00,38.1,31.5,29.96,West,273,4.0,6.0,77,0.00,,,0.00,Wunderground v.1.15,2013-03-26 20:19:00,
2013-03-26 16:24:00,38.0,31.4,29.96,NW,319,5.0,9.0,77,0.00,,,0.00,Wunderground v.1.15,2013-03-26 20:24:00,
2013-03-26 16:30:00,37.9,31.3,29.96,West,264,4.0,6.0,77,0.00,,,0.00,Wunderground v.1.15,2013-03-26 20:30:00,
2013-03-26 16:35:00,38.1,31.5,29.96,SW,226,3.0,7.0,77,0.00,,,0.00,Wunderground v.1.15,2013-03-26 20:35:00,
2013-03-26 16:40:00,38.4,31.8,29.97,WSW,256,3.0,7.0,77,0.00,,,0.00,Wunderground v.1.15,2013-03-26 20:40:00,
2013-03-26 16:47:00,38.3,31.7,29.97,West,274,4.0,7.0,77,0.00,,,0.00,Wunderground v.1.15,2013-03-26 20:47:00,
2013-03-26 16:52:00,38.3,31.7,29.97,West,260,4.0,6.0,77,0.00,,,0.00,Wunderground v.1.15,2013-03-26 20:52:00,
2013-03-26 16:58:00,38.6,32.0,29.97,ESE,107,2.0,6.0,77,0.00,,,0.00,Wunderground v.1.15,2013-03-26 20:58:00,
2013-03-26 17:04:00,38.4,31.5,29.97,West,276,3.0,7.0,76,0.00,,,0.00,Wunderground v.1.15,2013-03-26 21:04:00,
2013-03-26 17:09:00,38.4,31.5,29.97,West,262,3.0,7.0,76,0.00,,,0.00,Wunderground v.1.15,2013-03-26 21:09:00,
2013-03-26 17:15:00,38.3,31.7,29.97,West,277,3.0,6.0,77,0.00,,,0.00,Wunderground v.1.15,2013-03-26 21:15:00,
2013-03-26 17:20:00,38.1,31.2,29.97,SW,232,4.0,6.0,76,0.00,,,0.00,Wunderground v.1.15,2013-03-26 21:20:00,
2013-03-26 17:25:00,38.1,31.5,29.97,SW,226,4.0,6.0,77,0.00,,,0.00,Wunderground v.1.15,2013-03-26 21:25:00,
2013-03-26 17:31:00,38.1,31.2,29.97,WSW,250,3.0,6.0,76,0.00,,,0.00,Wunderground v.1.15,2013-03-26 21:31:00,
2013-03-26 17:36:00,38.0,31.1,29.97,West,280,3.0,7.0,76,0.00,,,0.00,Wunderground v.1.15,2013-03-26 21:36:00,
2013-03-26 17:41:00,37.9,31.3,29.97,NW,325,3.0,5.0,77,0.00,,,0.00,Wunderground v.1.15,2013-03-26 21:41:00,
2013-03-26 17:46:00,37.6,31.0,29.97,SW,236,4.0,6.0,77,0.00,,,0.00,Wunderground v.1.15,2013-03-26 21:46:00,
2013-03-26 17:51:00,37.5,31.3,29.97,SW,217,4.0,7.0,78,0.00,,,0.00,Wunderground v.1.15,2013-03-26 21:51:00,
2013-03-26 17:57:00,37.3,31.1,29.97,SW,229,4.0,7.0,78,0.00,,,0.00,Wunderground v.1.15,2013-03-26 21:57:00,
2013-03-26 18:02:00,37.2,31.0,29.98,SW,233,3.0,6.0,78,0.00,,,0.00,Wunderground v.1.15,2013-03-26 22:02:00,
2013-03-26 18:08:00,37.1,30.9,29.98,WSW,252,3.0,6.0,78,0.00,,,0.00,Wunderground v.1.15,2013-03-26 22:08:00,
2013-03-26 18:14:00,37.1,30.9,29.98,WNW,293,3.0,6.0,78,0.00,,,0.00,Wunderground v.1.15,2013-03-26 22:14:00,
2013-03-26 18:19:00,36.9,30.7,29.98,West,277,3.0,8.0,78,0.00,,,0.00,Wunderground v.1.15,2013-03-26 22:19:00,
2013-03-26 18:25:00,36.9,30.7,29.98,WSW,245,3.0,6.0,78,0.00,,,0.00,Wunderground v.1.15,2013-03-26 22:25:00,
2013-03-26 18:30:00,36.7,30.8,29.98,NW,304,3.0,6.0,79,0.00,,,0.00,Wunderground v.1.15,2013-03-26 22:30:00,
2013-03-26 18:35:00,36.6,30.7,29.98,SW,215,3.0,6.0,79,0.00,,,0.00,Wunderground v.1.15,2013-03-26 22:35:00,
2013-03-26 18:41:00,36.5,30.9,29.99,West,276,2.0,6.0,80,0.00,,,0.00,Wunderground v.1.15,2013-03-26 22:41:00,
2013-03-26 18:46:00,36.3,30.7,29.99,West,267,2.0,6.0,80,0.00,,,0.00,Wunderground v.1.15,2013-03-26 22:46:00,
2013-03-26 18:51:00,36.1,30.5,29.99,SW,218,3.0,6.0,80,0.00,,,0.00,Wunderground v.1.15,2013-03-26 22:51:00,
2013-03-26 18:56:00,36.1,30.5,29.99,SW,229,3.0,6.0,80,0.00,,,0.00,Wunderground v.1.15,2013-03-26 22:56:00,
2013-03-26 19:02:00,36.0,30.4,29.99,SW,236,2.0,6.0,80,0.00,,,0.00,Wunderground v.1.15,2013-03-26 23:02:00,
2013-03-26 19:07:00,35.9,30.3,29.99,West,260,2.0,9.0,80,0.00,,,0.00,Wunderground v.1.15,2013-03-26 23:07:00,
2013-03-26 19:12:00,35.8,30.2,29.99,SSW,205,3.0,6.0,80,0.00,,,0.00,Wunderground v.1.15,2013-03-26 23:12:00,
2013-03-26 19:18:00,35.7,30.1,29.99,WNW,291,3.0,6.0,80,0.00,,,0.00,Wunderground v.1.15,2013-03-26 23:18:00,
2013-03-26 19:24:00,35.6,30.0,29.99,SSW,205,3.0,6.0,80,0.00,,,0.00,Wunderground v.1.15,2013-03-26 23:24:00,
2013-03-26 19:29:00,35.5,30.2,29.99,West,267,2.0,6.0,81,0.00,,,0.00,Wunderground v.1.15,2013-03-26 23:29:00,
2013-03-26 19:35:00,35.4,30.1,29.99,SW,233,2.0,6.0,81,0.00,,,0.00,Wunderground v.1.15,2013-03-26 23:35:00,
2013-03-26 19:40:00,35.3,30.1,29.99,WSW,246,2.0,6.0,81,0.00,,,0.00,Wunderground v.1.15,2013-03-26 23:40:00,
2013-03-26 19:45:00,35.2,30.0,30.00,WSW,248,3.0,6.0,81,0.00,,,0.00,Wunderground v.1.15,2013-03-26 23:45:00,
2013-03-26 19:50:00,35.2,30.0,30.00,WNW,285,3.0,6.0,81,0.00,,,0.00,Wunderground v.1.15,2013-03-26 23:50:00,
2013-03-26 19:56:00,35.1,30.2,30.00,SW,232,3.0,6.0,82,0.00,,,0.00,Wunderground v.1.15,2013-03-26 23:56:00,
2013-03-26 20:01:00,35.1,30.2,30.00,West,278,2.0,5.0,82,0.00,,,0.00,Wunderground v.1.15,2013-03-27 00:01:00,
2013-03-26 20:06:00,35.0,30.4,30.00,WSW,238,3.0,6.0,83,0.00,,,0.00,Wunderground v.1.15,2013-03-27 00:06:00,
2013-03-26 20:11:00,34.9,30.3,30.00,SE,129,3.0,6.0,83,0.00,,,0.00,Wunderground v.1.15,2013-03-27 00:11:00,
2013-03-26 20:17:00,34.9,30.3,30.00,WNW,285,3.0,6.0,83,0.00,,,0.00,Wunderground v.1.15,2013-03-27 00:17:00,
2013-03-26 20:22:00,34.8,30.5,30.00,West,273,3.0,6.0,84,0.00,,,0.00,Wunderground v.1.15,2013-03-27 00:22:00,
2013-03-26 20:27:00,34.7,30.4,30.01,West,277,3.0,6.0,84,0.00,,,0.00,Wunderground v.1.15,2013-03-27 00:27:00,
2013-03-26 20:32:00,34.6,30.3,30.01,SSE,166,3.0,6.0,84,0.00,,,0.00,Wunderground v.1.15,2013-03-27 00:32:00,
2013-03-26 20:37:00,34.7,30.4,30.01,SW,223,3.0,6.0,84,0.00,,,0.00,Wunderground v.1.15,2013-03-27 00:37:00,
2013-03-26 20:43:00,34.7,30.1,30.01,West,270,3.0,6.0,83,0.00,,,0.00,Wunderground v.1.15,2013-03-27 00:43:00,
2013-03-26 20:49:00,34.6,29.7,30.01,West,277,4.0,6.0,82,0.00,,,0.00,Wunderground v.1.15,2013-03-27 00:49:00,
2013-03-26 20:54:00,34.7,29.8,30.02,West,270,4.0,7.0,82,0.00,,,0.00,Wunderground v.1.15,2013-03-27 00:54:00,
2013-03-26 21:00:00,34.6,29.7,30.02,WNW,295,4.0,4.0,82,0.00,,,0.00,Wunderground v.1.15,2013-03-27 01:00:00,
2013-03-26 21:06:00,34.5,29.6,30.02,WNW,284,3.0,6.0,82,0.00,,,0.00,Wunderground v.1.15,2013-03-27 01:06:00,
2013-03-26 21:11:00,34.4,29.2,30.02,West,271,3.0,6.0,81,0.00,,,0.00,Wunderground v.1.15,2013-03-27 01:11:00,
2013-03-26 21:16:00,34.4,29.2,30.02,WNW,291,4.0,6.0,81,0.00,,,0.00,Wunderground v.1.15,2013-03-27 01:16:00,
2013-03-26 21:22:00,34.3,29.1,30.02,West,276,3.0,6.0,81,0.00,,,0.00,Wunderground v.1.15,2013-03-27 01:22:00,
2013-03-26 21:28:00,34.2,29.0,30.02,WSW,240,3.0,8.0,81,0.00,,,0.00,Wunderground v.1.15,2013-03-27 01:28:00,
2013-03-26 21:34:00,34.0,29.1,30.03,West,280,4.0,11.0,82,0.00,,,0.00,Wunderground v.1.15,2013-03-27 01:34:00,
2013-03-26 21:40:00,33.9,29.3,30.03,WNW,283,4.0,4.0,83,0.00,,,0.00,Wunderground v.1.15,2013-03-27 01:40:00,
2013-03-26 21:45:00,33.7,29.4,30.03,West,278,4.0,6.0,84,0.00,,,0.00,Wunderground v.1.15,2013-03-27 01:45:00,
2013-03-26 21:51:00,33.7,29.4,30.04,WNW,287,3.0,6.0,84,0.00,,,0.00,Wunderground v.1.15,2013-03-27 01:51:00,
2013-03-26 21:56:00,33.6,29.3,30.04,WNW,284,3.0,6.0,84,0.00,,,0.00,Wunderground v.1.15,2013-03-27 01:56:00,
2013-03-26 22:01:00,33.6,29.6,30.04,SW,235,3.0,6.0,85,0.00,,,0.00,Wunderground v.1.15,2013-03-27 02:01:00,
2013-03-26 22:07:00,33.5,29.5,30.04,West,270,2.0,6.0,85,0.00,,,0.00,Wunderground v.1.15,2013-03-27 02:07:00,
2013-03-26 22:13:00,33.4,29.4,30.04,West,281,2.0,6.0,85,0.00,,,0.00,Wunderground v.1.15,2013-03-27 02:13:00,
2013-03-26 22:18:00,33.3,29.3,30.04,West,280,2.0,6.0,85,0.00,,,0.00,Wunderground v.1.15,2013-03-27 02:18:00,
2013-03-26 22:23:00,33.3,29.3,30.05,WNW,287,2.0,6.0,85,0.00,,,0.00,Wunderground v.1.15,2013-03-27 02:23:00,
2013-03-26 22:28:00,33.3,29.6,30.05,WNW,285,2.0,6.0,86,0.00,,,0.00,Wunderground v.1.15,2013-03-27 02:28:00,
2013-03-26 22:33:00,33.2,29.5,30.05,West,262,1.0,6.0,86,0.00,,,0.00,Wunderground v.1.15,2013-03-27 02:33:00,
2013-03-26 22:39:00,33.1,29.4,30.05,WSW,239,1.0,6.0,86,0.00,,,0.00,Wunderground v.1.15,2013-03-27 02:39:00,
2013-03-26 22:44:00,33.0,29.6,30.05,WSW,238,2.0,6.0,87,0.00,,,0.00,Wunderground v.1.15,2013-03-27 02:44:00,
2013-03-26 22:50:00,32.8,29.4,30.04,West,268,2.0,2.0,87,0.00,,,0.00,Wunderground v.1.15,2013-03-27 02:50:00,
2013-03-26 22:56:00,32.7,29.5,30.05,West,272,2.0,6.0,88,0.00,,,0.00,Wunderground v.1.15,2013-03-27 02:56:00,
2013-03-26 23:01:00,32.6,29.4,30.04,West,259,2.0,6.0,88,0.00,,,0.00,Wunderground v.1.15,2013-03-27 03:01:00,
2013-03-26 23:06:00,32.6,29.4,30.04,WNW,284,2.0,6.0,88,0.00,,,0.00,Wunderground v.1.15,2013-03-27 03:06:00,
2013-03-26 23:12:00,32.6,29.4,30.04,SSW,211,2.0,6.0,88,0.00,,,0.00,Wunderground v.1.15,2013-03-27 03:12:00,
2013-03-26 23:17:00,32.6,29.4,30.04,WSW,249,2.0,6.0,88,0.00,,,0.00,Wunderground v.1.15,2013-03-27 03:17:00,
2013-03-26 23:22:00,32.5,29.3,30.04,West,279,2.0,4.0,88,0.00,,,0.00,Wunderground v.1.15,2013-03-27 03:22:00,
2013-03-26 23:27:00,32.5,29.3,30.04,NNW,345,2.0,6.0,88,0.00,,,0.00,Wunderground v.1.15,2013-03-27 03:27:00,
2013-03-26 23:33:00,32.6,29.4,30.04,West,281,2.0,6.0,88,0.00,,,0.00,Wunderground v.1.15,2013-03-27 03:33:00,
2013-03-26 23:39:00,32.6,29.4,30.04,WSW,246,2.0,6.0,88,0.00,,,0.00,Wunderground v.1.15,2013-03-27 03:39:00,
2013-03-26 23:44:00,32.7,29.5,30.04,SW,233,2.0,6.0,88,0.00,,,0.00,Wunderground v.1.15,2013-03-27 03:44:00,
2013-03-26 23:49:00,32.6,29.4,30.04,SW,229,2.0,6.0,88,0.00,,,0.00,Wunderground v.1.15,2013-03-27 03:49:00,
2013-03-26 23:54:00,32.6,29.4,30.04,West,278,2.0,6.0,88,0.00,,,0.00,Wunderground v.1.15,2013-03-27 03:54:00,
2013-03-26 23:59:00,32.6,29.4,30.04,WNW,285,2.0,6.0,88,0.00,,,0.00,Wunderground v.1.15,2013-03-27 03:59:00,